Date String (YYYY-MM-DD hh:mm:ss) UTC,Instrument flags,absolute air pressure of the measurement (hPa),sample flow rate (lpm),inlet stack bypass flow (lpm),air temperature of the measurement (°C),ambient temperature measured by the external sensor (°C),aerosol sample conditioner tube jacket temperature (°C),OPC LED temperature (°C),internal box temperature (°C),relative humidity of the measurement (%),span deviation,mass concentration of particles derived from Lorenz-Mie calculation of OPC scattering (μg/m³),mass concentration of particles derived from Lorenz-Mie calculation of OPC scattering (μg/m³),mass concentration of particles derived from Lorenz-Mie calculation of OPC scattering (μg/m³)
DateTimeUTC,F1_M11,P_M11,Q1_M11,Q2_M11,T1_M11,T2_M11,T3_M11,T4_M11,T5_M11,U1_M11,ZSPAN_M11,X0_M11,X2_M11,X1_M11
2024-06-01 18:00:00,SystemResetWarning,0828.1,5.00,000.00,029.7,029.3,000.0,037.8,031.5,018.3,0000.0,0010.39,0004.06,0003.40
2024-06-01 18:01:00,SystemResetWarning,0828.0,4.99,000.00,029.8,029.3,000.0,037.9,031.6,018.4,0000.0,0010.26,0004.07,0003.38
2024-06-01 18:02:00,SystemResetWarning,0827.9,4.99,000.00,029.9,029.4,000.0,037.9,031.7,018.8,0000.0,0010.80,0004.04,0003.37
2024-06-01 18:03:00,SystemResetWarning,0827.9,5.00,000.00,029.9,029.2,000.0,038.0,031.6,018.6,0000.0,0010.94,0004.03,0003.37
2024-06-01 18:04:00,SystemResetWarning,0827.7,5.00,000.00,029.7,027.4,000.0,038.0,030.6,019.0,0000.0,0009.94,0004.00,0003.37
2024-06-01 18:05:00,SystemResetWarning,0827.7,5.01,000.00,029.4,026.9,000.0,038.1,030.4,019.7,0000.0,0009.58,0003.99,0003.38
2024-06-01 18:06:00,SystemResetWarning,0827.7,5.00,000.00,029.3,027.3,000.0,038.0,030.5,020.3,0000.0,0009.90,0004.01,0003.39
2024-06-01 18:07:00,SystemResetWarning,0827.8,5.00,000.00,029.3,027.6,000.0,037.9,030.7,021.2,0000.0,0010.50,0004.03,0003.40
2024-06-01 18:08:00,SystemResetWarning,0827.8,5.00,000.00,029.4,027.9,000.0,037.8,030.9,019.7,0000.0,0010.70,0004.06,0003.41
2024-06-01 18:09:00,SystemResetWarning,0827.8,5.00,000.00,029.4,028.2,000.0,037.8,031.0,020.3,0000.0,0010.80,0004.09,0003.42
2024-06-01 18:10:00,SystemResetWarning,0827.8,4.99,000.00,029.5,028.4,000.0,037.8,031.1,020.5,0000.0,0010.61,0004.17,0003.43
2024-06-01 18:11:00,SystemResetWarning,0827.7,5.00,000.00,029.5,028.6,000.0,037.8,031.2,019.8,0000.0,0010.82,0004.22,0003.45
2024-06-01 18:12:00,SystemResetWarning,0827.7,5.00,000.00,029.6,028.8,000.0,037.8,031.3,020.8,0000.0,0011.19,0004.21,0003.46
2024-06-01 18:13:00,SystemResetWarning,0827.7,5.00,000.00,029.7,029.0,000.0,037.8,031.4,019.5,0000.0,0011.15,0004.29,0003.48
2024-06-01 18:14:00,SystemResetWarning,0827.7,5.00,000.00,029.7,029.1,000.0,037.9,031.5,018.4,0000.0,0011.70,0004.31,0003.49
2024-06-01 18:15:00,SystemResetWarning,0827.7,5.00,000.00,029.8,029.2,000.0,037.9,031.5,018.4,0000.0,0012.05,0004.30,0003.48
2024-06-01 18:16:00,SystemResetWarning,0827.7,5.01,000.00,029.8,029.3,000.0,037.9,031.6,019.4,0000.0,0012.35,0004.30,0003.47
2024-06-01 18:17:00,SystemResetWarning,0827.7,5.00,000.00,029.9,029.4,000.0,038.0,031.6,019.7,0000.0,0011.98,0004.27,0003.46
2024-06-01 18:18:00,SystemResetWarning,0827.7,4.98,000.00,029.8,028.2,000.0,038.0,031.0,019.3,0000.0,0012.08,0004.29,0003.45
2024-06-01 18:19:00,SystemResetWarning,0827.5,5.01,000.00,029.4,026.0,000.0,038.1,029.9,018.8,0000.0,0012.66,0004.32,0003.45
2024-06-01 18:20:00,SystemResetWarning,0827.6,5.01,000.00,029.1,025.8,000.0,038.0,029.8,018.3,0000.0,0013.32,0004.34,0003.46
2024-06-01 18:21:00,SystemResetWarning,0827.5,4.99,000.00,029.0,026.4,000.0,037.9,030.1,018.8,0000.0,0013.76,0004.31,0003.47
2024-06-01 18:22:00,SystemResetWarning,0827.5,5.00,000.00,029.0,026.8,000.0,037.8,030.3,019.6,0000.0,0013.88,0004.30,0003.46
2024-06-01 18:23:00,SystemResetWarning,0827.5,5.00,000.00,029.1,027.3,000.0,037.7,030.5,019.0,0000.0,0013.32,0004.30,0003.46
2024-06-01 18:24:00,SystemResetWarning,0827.5,5.01,000.00,029.1,027.6,000.0,037.7,030.7,018.6,0000.0,0013.12,0004.27,0003.45
2024-06-01 18:25:00,SystemResetWarning,0827.7,4.99,000.00,029.2,027.9,000.0,037.6,030.8,018.8,0000.0,0013.05,0004.28,0003.45
2024-06-01 18:26:00,SystemResetWarning,0827.8,4.98,000.00,029.2,028.2,000.0,037.6,030.9,019.0,0000.0,0012.84,0004.30,0003.47
2024-06-01 18:27:00,SystemResetWarning,0827.6,5.00,000.00,029.3,028.4,000.0,037.6,031.0,019.6,0000.0,0013.50,0004.33,0003.48
2024-06-01 18:28:00,SystemResetWarning,0827.4,5.01,000.00,029.4,028.6,000.0,037.6,031.1,019.7,0000.0,0014.17,0004.39,0003.49
2024-06-01 18:29:00,SystemResetWarning,0827.4,4.99,000.00,029.4,028.8,000.0,037.6,031.2,019.4,0000.0,0013.51,0004.43,0003.51
2024-06-01 18:30:00,SystemResetWarning,0827.4,4.99,000.00,029.5,028.9,000.0,037.7,031.3,018.2,0000.0,0012.86,0004.45,0003.52
2024-06-01 18:31:00,SystemResetWarning,0827.4,4.99,000.00,029.6,029.0,000.0,037.7,031.3,018.2,0000.0,0013.41,0004.44,0003.53
2024-06-01 18:32:00,SystemResetWarning,0827.4,5.00,000.00,029.6,029.1,000.0,037.7,031.4,017.0,0000.0,0013.37,0004.41,0003.53
2024-06-01 18:33:00,SystemResetWarning,0827.4,5.00,000.00,029.7,029.2,000.0,037.8,031.5,017.5,0000.0,0013.82,0004.40,0003.54
2024-06-01 18:34:00,SystemResetWarning,0827.4,5.01,000.00,029.8,029.3,000.0,037.8,031.5,015.5,0000.0,0014.30,0004.43,0003.54
2024-06-01 18:35:00,SystemResetWarning,0827.3,5.00,000.00,029.7,028.3,000.0,037.9,031.0,015.2,0000.0,0014.32,0004.45,0003.52
2024-06-01 18:36:00,SystemResetWarning,0827.2,5.00,000.00,029.4,026.8,000.0,037.9,030.4,016.2,0000.0,0013.72,0004.43,0003.50
2024-06-01 18:37:00,SystemResetWarning,0827.2,5.01,000.00,029.3,027.1,000.0,037.9,030.4,015.6,0000.0,0013.63,0004.36,0003.45
2024-06-01 18:38:00,SystemResetWarning,0827.2,5.00,000.00,029.3,027.4,000.0,037.8,030.6,014.8,0000.0,0013.04,0004.33,0003.43
2024-06-01 18:39:00,SystemResetWarning,0827.2,4.99,000.00,029.3,027.8,000.0,037.8,030.8,016.1,0000.0,0012.47,0004.30,0003.41
2024-06-01 18:40:00,SystemResetWarning,0827.2,5.00,000.00,029.4,028.1,000.0,037.7,030.9,016.0,0000.0,0012.64,0004.24,0003.38
2024-06-01 18:41:00,SystemResetWarning,0827.1,5.01,000.00,029.4,028.3,000.0,037.7,031.1,016.4,0000.0,0012.47,0004.19,0003.36
2024-06-01 18:42:00,SystemResetWarning,0827.1,5.01,000.00,029.5,028.5,000.0,037.7,031.2,016.9,0000.0,0011.25,0004.18,0003.33
2024-06-01 18:43:00,SystemResetWarning,0827.1,5.00,000.00,029.5,028.7,000.0,037.7,031.2,017.8,0000.0,0010.94,0004.20,0003.32
2024-06-01 18:44:00,SystemResetWarning,0827.1,5.00,000.00,029.6,028.9,000.0,037.8,031.3,017.8,0000.0,0011.84,0004.23,0003.31
2024-06-01 18:45:00,SystemResetWarning,0827.1,4.99,000.00,029.6,029.0,000.0,037.8,031.4,017.0,0000.0,0012.79,0004.21,0003.30
2024-06-01 18:46:00,SystemResetWarning,0827.1,5.00,000.00,029.7,029.1,000.0,037.8,031.5,017.6,0000.0,0013.53,0004.19,0003.31
2024-06-01 18:47:00,SystemResetWarning,0827.1,5.00,000.00,029.8,029.2,000.0,037.9,031.5,017.7,0000.0,0014.18,0004.18,0003.33
2024-06-01 18:48:00,SystemResetWarning,0827.1,5.01,000.00,029.8,029.3,000.0,037.9,031.6,017.9,0000.0,0014.61,0004.21,0003.35
2024-06-01 18:49:00,SystemResetWarning,0827.1,4.99,000.00,029.9,029.0,000.0,037.9,031.4,018.1,0000.0,0015.04,0004.22,0003.37
2024-06-01 18:50:00,SystemResetWarning,0826.9,4.99,000.00,029.6,026.8,000.0,038.0,030.4,018.1,0000.0,0015.84,0004.25,0003.39
2024-06-01 18:51:00,SystemResetWarning,0826.9,5.01,000.00,029.1,025.7,000.0,038.0,029.8,017.8,0000.0,0016.35,0004.26,0003.40
2024-06-01 18:52:00,SystemResetWarning,0826.9,5.01,000.00,029.0,026.2,000.0,037.9,029.9,017.1,0000.0,0016.33,0004.27,0003.41
2024-06-01 18:53:00,SystemResetWarning,0826.9,5.00,000.00,029.0,026.6,000.0,037.8,030.2,017.1,0000.0,0017.08,0004.27,0003.42
2024-06-01 18:54:00,SystemResetWarning,0826.9,4.99,000.00,029.0,027.1,000.0,037.7,030.4,017.8,0000.0,0017.17,0004.25,0003.43
2024-06-01 18:55:00,SystemResetWarning,0826.9,5.00,000.00,029.1,027.5,000.0,037.6,030.6,017.2,0000.0,0016.26,0004.21,0003.42
2024-06-01 18:56:00,SystemResetWarning,0826.9,5.00,000.00,029.1,027.8,000.0,037.6,030.7,017.2,0000.0,0014.61,0004.21,0003.42
2024-06-01 18:57:00,SystemResetWarning,0826.9,5.01,000.00,029.2,028.1,000.0,037.6,030.9,017.5,0000.0,0014.12,0004.20,0003.41
2024-06-01 18:58:00,SystemResetWarning,0826.9,5.00,000.00,029.2,028.3,000.0,037.6,031.0,016.1,0000.0,0014.50,0004.19,0003.41
2024-06-01 18:59:00,SystemResetWarning,0826.9,5.00,000.00,029.3,028.5,000.0,037.6,031.1,016.2,0000.0,0015.70,0004.19,0003.41
